Altus AFB, OK

4:50 PM CST on January 22, 2018 (GMT -0600)
Altus Air Force Base

Weather History for KLTS - May, 2012

Change the Weather History Date:

Tuesday, May 22, 2012

  Actual Average Record
Temperature  
Mean Temperature 78 °F -  
Max Temperature 93 °F 84 °F 102 °F (2000)
Min Temperature 64 °F 61 °F 46 °F (2001)
Cooling Degree Days 14    
Growing Degree Days 28 (Base 50)    
Moisture  
Dew Point 60 °F    
Average Humidity 58    
Maximum Humidity 96    
Minimum Humidity 27    
Precipitation  
Precipitation 0.00 in - - ()
Sea Level Pressure  
Sea Level Pressure 29.91 in    
Wind  
Wind Speed 10 mph (SSE)    
Max Wind Speed 22 mph    
Max Gust Speed 29 mph    
Visibility 10 miles    
Events      
Averages and records for this station are not official NWS values.
T = Trace of Precipitation, MM = Missing Value Source: NWS Daily Summary

Daily Weather History Graph

Daily Weather History Graph

Search for Another Location

Airport or City:

Trip Planner

Search our weather history database for the weather conditions in past years. The results will help you decide how hot, cold, wet, or windy it might be!

Date:

Astronomy

May. 22, 2012 Rise Set
Actual Time 6:29 AM CDT 8:38 PM CDT
Civil Twilight 6:00 AM CDT 9:07 PM CDT
Nautical Twilight 5:26 AM CDT 9:41 PM CDT
Astronomical Twilight 4:48 AM CDT 10:19 PM CDT
Moon 7:42 AM CDT 10:17 PM CDT
Length of Visible Light 15h 06m
Length of Day
14h 09m
Waxing Crescent, 3% of the Moon is Illuminated
May 22
Waxing Crescent
May 28
First Quarter
Jun 4
Full
Jun 11
Last Quarter
Jun 19
New

Hourly Weather History & Observations

Time (CDT) Temp. Heat Index Dew Point Humidity Pressure Visibility Wind Dir Wind Speed Gust Speed Precip Events Conditions
12:55 AM 67.6 °F - 63.9 °F 88% 30.04 in 10.0 mi East 8.1 mph - N/A   Clear
1:55 AM 66.4 °F - 63.7 °F 91% 30.02 in 10.0 mi East 6.9 mph - N/A   Clear
2:55 AM 66.6 °F - 64.0 °F 92% 30.03 in 10.0 mi ESE 4.6 mph - N/A   Overcast
3:55 AM 66.2 °F - 63.5 °F 91% 30.02 in 10.0 mi ESE 3.5 mph - N/A   Mostly Cloudy
4:04 AM 66.2 °F - 62.6 °F 88% 30.03 in 10.0 mi West 11.5 mph - N/A   Mostly Cloudy
4:20 AM 68.0 °F - 62.6 °F 83% 30.02 in 10.0 mi WSW 6.9 mph - N/A   Scattered Clouds
4:55 AM 65.8 °F - 64.6 °F 96% 30.00 in 10.0 mi Calm Calm - N/A   Partly Cloudy
5:55 AM 71.6 °F - 59.0 °F 64% 30.19 in 10.0 mi ESE 3.5 mph - N/A   Scattered Clouds
6:55 AM 64.0 °F - 60.3 °F 87% 30.04 in 10.0 mi SE 8.1 mph - N/A   Clear
8:55 AM 70.5 °F - 57.6 °F 63% 30.03 in 10.0 mi SE 13.8 mph - N/A   Clear
9:55 AM 75.4 °F - 57.4 °F 53% 30.01 in 10.0 mi SE 19.6 mph - N/A   Clear
10:55 AM 77.4 °F - 59.7 °F 54% 30.00 in 10.0 mi SE 19.6 mph - N/A   Clear
11:55 AM 81.7 °F 82.4 °F 61.2 °F 50% 29.98 in 10.0 mi South 12.7 mph 23.0 mph N/A   Clear
12:55 PM 85.6 °F 85.9 °F 61.5 °F 44% 29.94 in 10.0 mi South 11.5 mph 19.6 mph N/A   Clear
1:55 PM 89.6 °F 89.2 °F 60.4 °F 37% 29.90 in 10.0 mi South 15.0 mph 23.0 mph N/A   Partly Cloudy
2:55 PM 92.3 °F 91.0 °F 57.6 °F 31% 29.86 in 10.0 mi South 16.1 mph 20.7 mph N/A   Clear
3:55 PM 93.4 °F 91.8 °F 57.0 °F 29% 29.83 in 10.0 mi SSE 12.7 mph 25.3 mph N/A   Partly Cloudy
4:55 PM 93.7 °F 92.3 °F 56.7 °F 29% 29.80 in 10.0 mi South 17.3 mph - N/A   Partly Cloudy
5:55 PM 93.0 °F 90.8 °F 54.7 °F 27% 29.78 in 10.0 mi SSE 17.3 mph 25.3 mph N/A   Clear
6:55 PM 91.9 °F 90.0 °F 55.0 °F 29% 29.76 in 10.0 mi SSE 15.0 mph 23.0 mph N/A   Clear
7:55 PM 88.0 °F 86.5 °F 56.7 °F 34% 29.76 in 10.0 mi SSE 21.9 mph 27.6 mph N/A   Clear
8:55 PM 83.3 °F 82.8 °F 57.0 °F 41% 29.70 in 10.0 mi SE 16.1 mph - N/A   Clear
9:55 PM 80.2 °F 80.6 °F 57.9 °F 46% 29.70 in 10.0 mi SE 18.4 mph - N/A   Clear
10:55 PM 78.6 °F - 58.8 °F 50% 29.71 in 10.0 mi SSE 16.1 mph - N/A   Clear
11:55 PM 76.6 °F - 59.7 °F 56% 29.70 in 10.0 mi SSE 16.1 mph 28.8 mph N/A   Clear